Year,Month,Day,Hour,Minute,Value (Times are PST for insolation in W/m^2)
2019,06,04,00,00,0.00
2019,06,04,00,01,0.00
2019,06,04,00,02,0.00
2019,06,04,00,03,0.00
2019,06,04,00,04,0.00
2019,06,04,00,05,0.00
2019,06,04,00,06,0.00
2019,06,04,00,07,0.00
2019,06,04,00,08,0.00
2019,06,04,00,09,0.00
2019,06,04,00,10,0.00
2019,06,04,00,11,0.00
2019,06,04,00,12,0.00
2019,06,04,00,13,0.00
2019,06,04,00,14,0.00
2019,06,04,00,15,0.00
2019,06,04,00,16,0.00
2019,06,04,00,17,0.00
2019,06,04,00,18,0.00
2019,06,04,00,19,0.00
2019,06,04,00,20,0.00
2019,06,04,00,21,0.00
2019,06,04,00,22,0.00
2019,06,04,00,23,0.00
2019,06,04,00,24,0.00
2019,06,04,00,25,0.00
2019,06,04,00,26,0.00
2019,06,04,00,27,0.00
2019,06,04,00,28,0.00
2019,06,04,00,29,0.00
2019,06,04,00,30,0.00
2019,06,04,00,31,0.00
2019,06,04,00,32,0.00
2019,06,04,00,33,0.00
2019,06,04,00,34,0.00
2019,06,04,00,35,0.00
2019,06,04,00,36,0.00
2019,06,04,00,37,0.00
2019,06,04,00,38,0.00
2019,06,04,00,39,0.00
2019,06,04,00,40,0.00
2019,06,04,00,41,0.00
2019,06,04,00,42,0.00
2019,06,04,00,43,0.00
2019,06,04,00,44,0.00
2019,06,04,00,45,0.00
2019,06,04,00,46,0.00
2019,06,04,00,47,0.00
2019,06,04,00,48,0.00
2019,06,04,00,49,0.00
2019,06,04,00,50,0.00
2019,06,04,00,51,0.00
2019,06,04,00,52,0.00
2019,06,04,00,53,0.00
2019,06,04,00,54,0.00
2019,06,04,00,55,0.00
2019,06,04,00,56,0.00
2019,06,04,00,57,0.00
2019,06,04,00,58,0.00
2019,06,04,00,59,0.00
2019,06,04,01,00,0.00
2019,06,04,01,01,0.00
2019,06,04,01,02,0.00
2019,06,04,01,03,0.00
2019,06,04,01,04,0.00
2019,06,04,01,05,0.00
2019,06,04,01,06,0.00
2019,06,04,01,07,0.00
2019,06,04,01,08,0.00
2019,06,04,01,09,0.00
2019,06,04,01,10,0.00
2019,06,04,01,11,0.00
2019,06,04,01,12,0.00
2019,06,04,01,13,0.00
2019,06,04,01,14,0.00
2019,06,04,01,15,0.00
2019,06,04,01,16,0.00
2019,06,04,01,17,0.00
2019,06,04,01,18,0.00
2019,06,04,01,19,0.00
2019,06,04,01,20,0.00
2019,06,04,01,21,0.00
2019,06,04,01,22,0.00
2019,06,04,01,23,0.00
2019,06,04,01,24,0.00
2019,06,04,01,25,0.00
2019,06,04,01,26,0.00
2019,06,04,01,27,0.00
2019,06,04,01,28,0.00
2019,06,04,01,29,0.00
2019,06,04,01,30,0.00
2019,06,04,01,31,0.00
2019,06,04,01,32,0.00
2019,06,04,01,33,0.00
2019,06,04,01,34,0.00
2019,06,04,01,35,0.00
2019,06,04,01,36,0.00
2019,06,04,01,37,0.00
2019,06,04,01,38,0.00
2019,06,04,01,39,0.00
2019,06,04,01,40,0.00
2019,06,04,01,41,0.00
2019,06,04,01,42,0.00
2019,06,04,01,43,0.00
2019,06,04,01,44,0.00
2019,06,04,01,45,0.00
2019,06,04,01,46,0.00
2019,06,04,01,47,0.00
2019,06,04,01,48,0.00
2019,06,04,01,49,0.00
2019,06,04,01,50,0.00
2019,06,04,01,51,0.00
2019,06,04,01,52,0.00
2019,06,04,01,53,0.00
2019,06,04,01,54,0.00
2019,06,04,01,55,0.00
2019,06,04,01,56,0.00
2019,06,04,01,57,0.00
2019,06,04,01,58,0.00
2019,06,04,01,59,0.00
2019,06,04,02,00,0.00
2019,06,04,02,01,0.00
2019,06,04,02,02,0.00
2019,06,04,02,03,0.00
2019,06,04,02,04,0.00
2019,06,04,02,05,0.00
2019,06,04,02,06,0.00
2019,06,04,02,07,0.00
2019,06,04,02,08,0.00
2019,06,04,02,09,0.00
2019,06,04,02,10,0.00
2019,06,04,02,11,0.00
2019,06,04,02,12,0.00
2019,06,04,02,13,0.00
2019,06,04,02,14,0.00
2019,06,04,02,15,0.00
2019,06,04,02,16,0.00
2019,06,04,02,17,0.00
2019,06,04,02,18,0.00
2019,06,04,02,19,0.00
2019,06,04,02,20,0.00
2019,06,04,02,21,0.00
2019,06,04,02,22,0.00
2019,06,04,02,23,0.00
2019,06,04,02,24,0.00
2019,06,04,02,25,0.00
2019,06,04,02,26,0.00
2019,06,04,02,27,0.00
2019,06,04,02,28,0.00
2019,06,04,02,29,0.00
2019,06,04,02,30,0.00
2019,06,04,02,31,0.00
2019,06,04,02,32,0.00
2019,06,04,02,33,0.00
2019,06,04,02,34,0.00
2019,06,04,02,35,0.00
2019,06,04,02,36,0.00
2019,06,04,02,37,0.00
2019,06,04,02,38,0.00
2019,06,04,02,39,0.00
2019,06,04,02,40,0.00
2019,06,04,02,41,0.00
2019,06,04,02,42,0.00
2019,06,04,02,43,0.00
2019,06,04,02,44,0.00
2019,06,04,02,45,0.00
2019,06,04,02,46,0.00
2019,06,04,02,47,0.00
2019,06,04,02,48,0.00
2019,06,04,02,49,0.00
2019,06,04,02,50,0.00
2019,06,04,02,51,0.00
2019,06,04,02,52,0.00
2019,06,04,02,53,0.00
2019,06,04,02,54,0.00
2019,06,04,02,55,0.00
2019,06,04,02,56,0.00
2019,06,04,02,57,0.00
2019,06,04,02,58,0.00
2019,06,04,02,59,0.00
2019,06,04,03,00,0.00
2019,06,04,03,01,0.00
2019,06,04,03,02,0.00
2019,06,04,03,03,0.00
2019,06,04,03,04,0.00
2019,06,04,03,05,0.00
2019,06,04,03,06,0.00
2019,06,04,03,07,0.00
2019,06,04,03,08,0.00
2019,06,04,03,09,0.00
2019,06,04,03,10,0.00
2019,06,04,03,11,0.00
2019,06,04,03,12,0.00
2019,06,04,03,13,0.00
2019,06,04,03,14,0.00
2019,06,04,03,15,0.00
2019,06,04,03,16,0.00
2019,06,04,03,17,0.00
2019,06,04,03,18,0.00
2019,06,04,03,19,0.00
2019,06,04,03,20,0.00
2019,06,04,03,21,0.00
2019,06,04,03,22,0.00
2019,06,04,03,23,0.00
2019,06,04,03,24,0.00
2019,06,04,03,25,0.00
2019,06,04,03,26,0.00
2019,06,04,03,27,0.00
2019,06,04,03,28,0.00
2019,06,04,03,29,0.00
2019,06,04,03,30,0.00
2019,06,04,03,31,0.00
2019,06,04,03,32,0.00
2019,06,04,03,33,0.00
2019,06,04,03,34,0.00
2019,06,04,03,35,0.00
2019,06,04,03,36,0.00
2019,06,04,03,37,0.00
2019,06,04,03,38,0.00
2019,06,04,03,39,0.00
2019,06,04,03,40,0.00
2019,06,04,03,41,0.00
2019,06,04,03,42,0.00
2019,06,04,03,43,0.00
2019,06,04,03,44,0.00
2019,06,04,03,45,0.00
2019,06,04,03,46,0.00
2019,06,04,03,47,0.00
2019,06,04,03,48,0.00
2019,06,04,03,49,0.00
2019,06,04,03,50,0.00
2019,06,04,03,51,0.00
2019,06,04,03,52,0.00
2019,06,04,03,53,0.00
2019,06,04,03,54,0.00
2019,06,04,03,55,0.00
2019,06,04,03,56,0.00
2019,06,04,03,57,0.00
2019,06,04,03,58,0.00
2019,06,04,03,59,0.00
2019,06,04,04,00,0.00
2019,06,04,04,01,0.00
2019,06,04,04,02,0.00
2019,06,04,04,03,0.00
2019,06,04,04,04,0.00
2019,06,04,04,05,0.00
2019,06,04,04,06,0.00
2019,06,04,04,07,0.00
2019,06,04,04,08,0.00
2019,06,04,04,09,0.00
2019,06,04,04,10,0.00
2019,06,04,04,11,0.00
2019,06,04,04,12,0.00
2019,06,04,04,13,0.00
2019,06,04,04,14,0.00
2019,06,04,04,15,0.00
2019,06,04,04,16,0.00
2019,06,04,04,17,0.00
2019,06,04,04,18,0.00
2019,06,04,04,19,0.00
2019,06,04,04,20,0.00
2019,06,04,04,21,0.00
2019,06,04,04,22,0.00
2019,06,04,04,23,0.00
2019,06,04,04,24,0.00
2019,06,04,04,25,0.00
2019,06,04,04,26,0.00
2019,06,04,04,27,0.00
2019,06,04,04,28,0.00
2019,06,04,04,29,0.00
2019,06,04,04,30,0.00
2019,06,04,04,31,0.00
2019,06,04,04,32,0.00
2019,06,04,04,33,0.00
2019,06,04,04,34,0.00
2019,06,04,04,35,0.00
2019,06,04,04,36,0.00
2019,06,04,04,37,0.00
2019,06,04,04,38,0.00
2019,06,04,04,39,0.00
2019,06,04,04,40,0.00
2019,06,04,04,41,0.00
2019,06,04,04,42,0.00
2019,06,04,04,43,0.00
2019,06,04,04,44,0.00
2019,06,04,04,45,0.00
2019,06,04,04,46,0.00
2019,06,04,04,47,0.00
2019,06,04,04,48,0.00
2019,06,04,04,49,0.00
2019,06,04,04,50,0.00
2019,06,04,04,51,0.00
2019,06,04,04,52,0.00
2019,06,04,04,53,0.00
2019,06,04,04,54,0.00
2019,06,04,04,55,0.00
2019,06,04,04,56,0.00
2019,06,04,04,57,0.00
2019,06,04,04,58,0.00
2019,06,04,04,59,0.00
2019,06,04,05,00,0.00
2019,06,04,05,01,0.00
2019,06,04,05,02,0.00
2019,06,04,05,03,0.00
2019,06,04,05,04,0.00
2019,06,04,05,05,0.00
2019,06,04,05,06,0.00
2019,06,04,05,07,0.00
2019,06,04,05,08,0.00
2019,06,04,05,09,0.00
2019,06,04,05,10,0.00
2019,06,04,05,11,0.00
2019,06,04,05,12,0.00
2019,06,04,05,13,0.00
2019,06,04,05,14,0.00
2019,06,04,05,15,0.00
2019,06,04,05,16,1.60
2019,06,04,05,17,5.00
2019,06,04,05,18,5.00
2019,06,04,05,19,5.00
2019,06,04,05,20,5.00
2019,06,04,05,21,5.00
2019,06,04,05,22,5.70
2019,06,04,05,23,7.00
2019,06,04,05,24,7.00
2019,06,04,05,25,7.00
2019,06,04,05,26,7.60
2019,06,04,05,27,9.00
2019,06,04,05,28,9.00
2019,06,04,05,29,9.00
2019,06,04,05,30,9.70
2019,06,04,05,31,11.00
2019,06,04,05,32,11.00
2019,06,04,05,33,11.00
2019,06,04,05,34,11.30
2019,06,04,05,35,12.00
2019,06,04,05,36,12.00
2019,06,04,05,37,12.00
2019,06,04,05,38,12.70
2019,06,04,05,39,14.00
2019,06,04,05,40,14.00
2019,06,04,05,41,14.00
2019,06,04,05,42,14.70
2019,06,04,05,43,16.00
2019,06,04,05,44,16.00
2019,06,04,05,45,16.00
2019,06,04,05,46,16.00
2019,06,04,05,47,16.60
2019,06,04,05,48,18.00
2019,06,04,05,49,18.00
2019,06,04,05,50,18.00
2019,06,04,05,51,18.30
2019,06,04,05,52,19.00
2019,06,04,05,53,19.00
2019,06,04,05,54,19.00
2019,06,04,05,55,19.60
2019,06,04,05,56,21.00
2019,06,04,05,57,21.00
2019,06,04,05,58,21.00
2019,06,04,05,59,21.60
2019,06,04,06,00,23.00
2019,06,04,06,01,23.00
2019,06,04,06,02,23.00
2019,06,04,06,03,23.60
2019,06,04,06,04,25.00
2019,06,04,06,05,25.00
2019,06,04,06,06,25.00
2019,06,04,06,07,25.30
2019,06,04,06,08,26.00
2019,06,04,06,09,26.00
2019,06,04,06,10,26.00
2019,06,04,06,11,26.70
2019,06,04,06,12,28.00
2019,06,04,06,13,28.00
2019,06,04,06,14,28.00
2019,06,04,06,15,28.60
2019,06,04,06,16,30.60
2019,06,04,06,17,32.00
2019,06,04,06,18,32.00
2019,06,04,06,19,33.50
2019,06,04,06,20,37.90
2019,06,04,06,21,37.70
2019,06,04,06,22,33.00
2019,06,04,06,23,34.40
2019,06,04,06,24,39.20
2019,06,04,06,25,44.70
2019,06,04,06,26,44.70
2019,06,04,06,27,42.70
2019,06,04,06,28,41.80
2019,06,04,06,29,37.00
2019,06,04,06,30,37.60
2019,06,04,06,31,39.00
2019,06,04,06,32,38.40
2019,06,04,06,33,37.70
2019,06,04,06,34,39.00
2019,06,04,06,35,39.30
2019,06,04,06,36,39.70
2019,06,04,06,37,39.00
2019,06,04,06,38,39.30
2019,06,04,06,39,40.60
2019,06,04,06,40,45.60
2019,06,04,06,41,69.30
2019,06,04,06,42,106.30
2019,06,04,06,43,112.70
2019,06,04,06,44,86.60
2019,06,04,06,45,60.70
2019,06,04,06,46,58.60
2019,06,04,06,47,67.70
2019,06,04,06,48,88.20
2019,06,04,06,49,91.30
2019,06,04,06,50,80.80
2019,06,04,06,51,84.00
2019,06,04,06,52,78.30
2019,06,04,06,53,72.10
2019,06,04,06,54,81.70
2019,06,04,06,55,76.80
2019,06,04,06,56,73.30
2019,06,04,06,57,86.40
2019,06,04,06,58,127.00
2019,06,04,06,59,170.30
2019,06,04,07,00,187.30
2019,06,04,07,01,178.30
2019,06,04,07,02,161.40
2019,06,04,07,03,183.10
2019,06,04,07,04,189.50
2019,06,04,07,05,193.70
2019,06,04,07,06,190.80
2019,06,04,07,07,192.10
2019,06,04,07,08,209.00
2019,06,04,07,09,195.70
2019,06,04,07,10,151.30
2019,06,04,07,11,121.60
2019,06,04,07,12,119.00
2019,06,04,07,13,113.30
2019,06,04,07,14,154.30
2019,06,04,07,15,178.10
2019,06,04,07,16,101.70
2019,06,04,07,17,80.80
2019,06,04,07,18,73.90
2019,06,04,07,19,69.30
2019,06,04,07,20,82.30
2019,06,04,07,21,130.40
2019,06,04,07,22,199.00
2019,06,04,07,23,241.90
2019,06,04,07,24,244.60
2019,06,04,07,25,247.30
2019,06,04,07,26,250.90
2019,06,04,07,27,254.30
2019,06,04,07,28,257.00
2019,06,04,07,29,258.50
2019,06,04,07,30,262.90
2019,06,04,07,31,265.70
2019,06,04,07,32,268.30
2019,06,04,07,33,265.60
2019,06,04,07,34,259.30
2019,06,04,07,35,275.70
2019,06,04,07,36,278.70
2019,06,04,07,37,280.30
2019,06,04,07,38,285.90
2019,06,04,07,39,288.70
2019,06,04,07,40,290.00
2019,06,04,07,41,269.00
2019,06,04,07,42,237.40
2019,06,04,07,43,270.70
2019,06,04,07,44,295.20
2019,06,04,07,45,302.60
2019,06,04,07,46,305.20
2019,06,04,07,47,308.30
2019,06,04,07,48,309.60
2019,06,04,07,49,312.30
2019,06,04,07,50,315.90
2019,06,04,07,51,318.70
2019,06,04,07,52,320.90
2019,06,04,07,53,324.30
2019,06,04,07,54,327.60
2019,06,04,07,55,330.00
2019,06,04,07,56,332.60
2019,06,04,07,57,335.20
2019,06,04,07,58,336.80
2019,06,04,07,59,336.10
2019,06,04,08,00,342.20
2019,06,04,08,01,345.90
2019,06,04,08,02,348.60
2019,06,04,08,03,351.00
2019,06,04,08,04,353.60
2019,06,04,08,05,356.30
2019,06,04,08,06,359.40
2019,06,04,08,07,361.40
2019,06,04,08,08,364.00
2019,06,04,08,09,365.00
2019,06,04,08,10,368.30
2019,06,04,08,11,371.70
2019,06,04,08,12,373.90
2019,06,04,08,13,376.70
2019,06,04,08,14,379.00
2019,06,04,08,15,382.40
2019,06,04,08,16,385.60
2019,06,04,08,17,387.90
2019,06,04,08,18,391.20
2019,06,04,08,19,387.30
2019,06,04,08,20,381.90
2019,06,04,08,21,399.60
2019,06,04,08,22,401.90
2019,06,04,08,23,404.70
2019,06,04,08,24,401.60
2019,06,04,08,25,394.70
2019,06,04,08,26,404.00
2019,06,04,08,27,412.80
2019,06,04,08,28,417.90
2019,06,04,08,29,420.70
2019,06,04,08,30,422.90
2019,06,04,08,31,426.30
2019,06,04,08,32,429.00
2019,06,04,08,33,430.00
2019,06,04,08,34,433.40
2019,06,04,08,35,436.00
2019,06,04,08,36,437.00
2019,06,04,08,37,440.30
2019,06,04,08,38,444.00
2019,06,04,08,39,447.30
2019,06,04,08,40,451.30
2019,06,04,08,41,454.90
2019,06,04,08,42,458.30
2019,06,04,08,43,461.90
2019,06,04,08,44,465.30
2019,06,04,08,45,468.90
2019,06,04,08,46,473.10
2019,06,04,08,47,470.00
2019,06,04,08,48,463.20
2019,06,04,08,49,482.10
2019,06,04,08,50,480.00
2019,06,04,08,51,481.00
2019,06,04,08,52,483.60
2019,06,04,08,53,485.70
2019,06,04,08,54,488.00
2019,06,04,08,55,491.40
2019,06,04,08,56,494.90
2019,06,04,08,57,497.60
2019,06,04,08,58,500.50
2019,06,04,08,59,504.00
2019,06,04,09,00,504.00
2019,06,04,09,01,507.00
2019,06,04,09,02,513.00
2019,06,04,09,03,515.30
2019,06,04,09,04,516.80
2019,06,04,09,05,517.70
2019,06,04,09,06,533.00
2019,06,04,09,07,477.40
2019,06,04,09,08,357.00
2019,06,04,09,09,410.70
2019,06,04,09,10,524.30
2019,06,04,09,11,519.30
2019,06,04,09,12,514.30
2019,06,04,09,13,510.40
2019,06,04,09,14,514.50
2019,06,04,09,15,502.60
2019,06,04,09,16,515.50
2019,06,04,09,17,520.00
2019,06,04,09,18,522.00
2019,06,04,09,19,521.10
2019,06,04,09,20,500.60
2019,06,04,09,21,480.70
2019,06,04,09,22,492.20
2019,06,04,09,23,484.10
2019,06,04,09,24,458.70
2019,06,04,09,25,460.30
2019,06,04,09,26,446.00
2019,06,04,09,27,446.00
2019,06,04,09,28,479.30
2019,06,04,09,29,560.70
2019,06,04,09,30,561.70
2019,06,04,09,31,558.80
2019,06,04,09,32,580.30
2019,06,04,09,33,578.30
2019,06,04,09,34,572.30
2019,06,04,09,35,582.10
2019,06,04,09,36,582.80
2019,06,04,09,37,587.10
2019,06,04,09,38,567.40
2019,06,04,09,39,551.30
2019,06,04,09,40,530.00
2019,06,04,09,41,535.00
2019,06,04,09,42,573.20
2019,06,04,09,43,573.30
2019,06,04,09,44,546.30
2019,06,04,09,45,527.30
2019,06,04,09,46,572.00
2019,06,04,09,47,588.70
2019,06,04,09,48,596.00
2019,06,04,09,49,587.80
2019,06,04,09,50,574.70
2019,06,04,09,51,590.90
2019,06,04,09,52,609.70
2019,06,04,09,53,613.50
2019,06,04,09,54,607.30
2019,06,04,09,55,604.30
2019,06,04,09,56,558.70
2019,06,04,09,57,492.00
2019,06,04,09,58,537.00
2019,06,04,09,59,643.00
2019,06,04,10,00,644.00
2019,06,04,10,01,638.50
2019,06,04,10,02,640.30
2019,06,04,10,03,660.80
2019,06,04,10,04,661.80
2019,06,04,10,05,657.60
2019,06,04,10,06,661.10
2019,06,04,10,07,665.00
2019,06,04,10,08,663.00
2019,06,04,10,09,663.00
2019,06,04,10,10,663.00
2019,06,04,10,11,663.30
2019,06,04,10,12,662.20
2019,06,04,10,13,661.20
2019,06,04,10,14,661.30
2019,06,04,10,15,652.00
2019,06,04,10,16,647.30
2019,06,04,10,17,638.00
2019,06,04,10,18,639.70
2019,06,04,10,19,640.50
2019,06,04,10,20,628.10
2019,06,04,10,21,628.30
2019,06,04,10,22,665.90
2019,06,04,10,23,678.50
2019,06,04,10,24,683.70
2019,06,04,10,25,682.20
2019,06,04,10,26,688.30
2019,06,04,10,27,693.60
2019,06,04,10,28,708.70
2019,06,04,10,29,711.30
2019,06,04,10,30,696.90
2019,06,04,10,31,657.00
2019,06,04,10,32,666.20
2019,06,04,10,33,676.40
2019,06,04,10,34,663.90
2019,06,04,10,35,693.00
2019,06,04,10,36,702.30
2019,06,04,10,37,693.00
2019,06,04,10,38,697.70
2019,06,04,10,39,711.70
2019,06,04,10,40,724.70
2019,06,04,10,41,731.60
2019,06,04,10,42,734.70
2019,06,04,10,43,736.40
2019,06,04,10,44,731.30
2019,06,04,10,45,736.40
2019,06,04,10,46,747.80
2019,06,04,10,47,740.70
2019,06,04,10,48,749.60
2019,06,04,10,49,769.00
2019,06,04,10,50,768.30
2019,06,04,10,51,753.20
2019,06,04,10,52,763.80
2019,06,04,10,53,793.10
2019,06,04,10,54,770.00
2019,06,04,10,55,770.00
2019,06,04,10,56,762.20
2019,06,04,10,57,740.30
2019,06,04,10,58,714.50
2019,06,04,10,59,688.80
2019,06,04,11,00,722.80
2019,06,04,11,01,763.30
2019,06,04,11,02,775.30
2019,06,04,11,03,772.90
2019,06,04,11,04,781.10
2019,06,04,11,05,778.30
2019,06,04,11,06,778.00
2019,06,04,11,07,780.00
2019,06,04,11,08,780.00
2019,06,04,11,09,780.00
2019,06,04,11,10,780.60
2019,06,04,11,11,782.00
2019,06,04,11,12,781.30
2019,06,04,11,13,780.70
2019,06,04,11,14,779.20
2019,06,04,11,15,776.70
2019,06,04,11,16,785.30
2019,06,04,11,17,788.00
2019,06,04,11,18,781.10
2019,06,04,11,19,769.90
2019,06,04,11,20,781.70
2019,06,04,11,21,771.00
2019,06,04,11,22,735.70
2019,06,04,11,23,744.10
2019,06,04,11,24,763.70
2019,06,04,11,25,763.70
2019,06,04,11,26,797.40
2019,06,04,11,27,807.00
2019,06,04,11,28,801.90
2019,06,04,11,29,794.30
2019,06,04,11,30,802.00
2019,06,04,11,31,797.50
2019,06,04,11,32,796.90
2019,06,04,11,33,814.00
2019,06,04,11,34,813.40
2019,06,04,11,35,811.30
2019,06,04,11,36,809.70
2019,06,04,11,37,809.00
2019,06,04,11,38,809.00
2019,06,04,11,39,810.70
2019,06,04,11,40,810.50
2019,06,04,11,41,807.70
2019,06,04,11,42,818.30
2019,06,04,11,43,821.70
2019,06,04,11,44,823.30
2019,06,04,11,45,824.70
2019,06,04,11,46,826.00
2019,06,04,11,47,826.60
2019,06,04,11,48,828.70
2019,06,04,11,49,827.90
2019,06,04,11,50,825.90
2019,06,04,11,51,830.00
2019,06,04,11,52,828.20
2019,06,04,11,53,825.30
2019,06,04,11,54,829.60
2019,06,04,11,55,826.70
2019,06,04,11,56,818.40
2019,06,04,11,57,829.00
2019,06,04,11,58,833.10
2019,06,04,11,59,831.40
2019,06,04,12,00,826.60
2019,06,04,12,01,837.00
2019,06,04,12,02,838.00
2019,06,04,12,03,837.80
2019,06,04,12,04,833.00
2019,06,04,12,05,829.80
2019,06,04,12,06,823.30
2019,06,04,12,07,819.50
2019,06,04,12,08,812.00
2019,06,04,12,09,817.50
2019,06,04,12,10,822.70
2019,06,04,12,11,837.80
2019,06,04,12,12,833.00
2019,06,04,12,13,837.90
2019,06,04,12,14,846.70
2019,06,04,12,15,845.40
2019,06,04,12,16,844.00
2019,06,04,12,17,843.40
2019,06,04,12,18,845.30
2019,06,04,12,19,853.00
2019,06,04,12,20,853.00
2019,06,04,12,21,853.00
2019,06,04,12,22,852.30
2019,06,04,12,23,849.70
2019,06,04,12,24,849.70
2019,06,04,12,25,856.60
2019,06,04,12,26,858.60
2019,06,04,12,27,860.30
2019,06,04,12,28,861.60
2019,06,04,12,29,863.00
2019,06,04,12,30,862.00
2019,06,04,12,31,860.90
2019,06,04,12,32,863.00
2019,06,04,12,33,863.60
2019,06,04,12,34,865.00
2019,06,04,12,35,865.60
2019,06,04,12,36,866.40
2019,06,04,12,37,865.00
2019,06,04,12,38,865.70
2019,06,04,12,39,867.00
2019,06,04,12,40,867.00
2019,06,04,12,41,867.90
2019,06,04,12,42,870.00
2019,06,04,12,43,869.10
2019,06,04,12,44,868.70
2019,06,04,12,45,871.40
2019,06,04,12,46,871.20
2019,06,04,12,47,874.30
2019,06,04,12,48,875.00
2019,06,04,12,49,874.70
2019,06,04,12,50,875.00
2019,06,04,12,51,869.40
2019,06,04,12,52,861.00
2019,06,04,12,53,870.40
2019,06,04,12,54,864.40
2019,06,04,12,55,884.00
2019,06,04,12,56,884.00
2019,06,04,12,57,885.60
2019,06,04,12,58,889.00
2019,06,04,12,59,889.00
2019,06,04,13,00,888.00
2019,06,04,13,01,886.00
2019,06,04,13,02,887.70
2019,06,04,13,03,888.80
2019,06,04,13,04,884.00
2019,06,04,13,05,883.40
2019,06,04,13,06,881.70
2019,06,04,13,07,881.30
2019,06,04,13,08,881.70
2019,06,04,13,09,884.20
2019,06,04,13,10,890.00
2019,06,04,13,11,886.70
2019,06,04,13,12,882.30
2019,06,04,13,13,883.20
2019,06,04,13,14,890.10
2019,06,04,13,15,890.30
2019,06,04,13,16,891.50
2019,06,04,13,17,876.30
2019,06,04,13,18,861.60
2019,06,04,13,19,861.30
2019,06,04,13,20,859.60
2019,06,04,13,21,860.70
2019,06,04,13,22,846.50
2019,06,04,13,23,840.00
2019,06,04,13,24,868.00
2019,06,04,13,25,874.70
2019,06,04,13,26,888.30
2019,06,04,13,27,889.00
2019,06,04,13,28,887.40
2019,06,04,13,29,872.30
2019,06,04,13,30,866.40
2019,06,04,13,31,901.30
2019,06,04,13,32,894.40
2019,06,04,13,33,890.00
2019,06,04,13,34,889.60
2019,06,04,13,35,891.30
2019,06,04,13,36,876.30
2019,06,04,13,37,856.70
2019,06,04,13,38,869.90
2019,06,04,13,39,874.30
2019,06,04,13,40,878.20
2019,06,04,13,41,884.60
2019,06,04,13,42,887.00
2019,06,04,13,43,889.00
2019,06,04,13,44,875.70
2019,06,04,13,45,859.50
2019,06,04,13,46,873.90
2019,06,04,13,47,863.70
2019,06,04,13,48,863.70
2019,06,04,13,49,861.00
2019,06,04,13,50,862.30
2019,06,04,13,51,865.00
2019,06,04,13,52,865.60
2019,06,04,13,53,870.30
2019,06,04,13,54,879.20
2019,06,04,13,55,852.30
2019,06,04,13,56,789.00
2019,06,04,13,57,800.70
2019,06,04,13,58,817.40
2019,06,04,13,59,769.70
2019,06,04,14,00,708.10
2019,06,04,14,01,719.00
2019,06,04,14,02,775.30
2019,06,04,14,03,884.20
2019,06,04,14,04,877.00
2019,06,04,14,05,878.60
2019,06,04,14,06,849.30
2019,06,04,14,07,784.00
2019,06,04,14,08,819.70
2019,06,04,14,09,886.00
2019,06,04,14,10,886.00
2019,06,04,14,11,886.00
2019,06,04,14,12,862.00
2019,06,04,14,13,789.70
2019,06,04,14,14,755.70
2019,06,04,14,15,793.00
2019,06,04,14,16,793.00
2019,06,04,14,17,793.00
2019,06,04,14,18,793.00
2019,06,04,14,19,793.00
2019,06,04,14,20,750.00
2019,06,04,14,21,664.00
2019,06,04,14,22,725.70
2019,06,04,14,23,849.00
2019,06,04,14,24,849.00
2019,06,04,14,25,849.00
2019,06,04,14,26,846.70
2019,06,04,14,27,853.70
2019,06,04,14,28,887.30
2019,06,04,14,29,902.70
2019,06,04,14,30,883.00
2019,06,04,14,31,849.00
2019,06,04,14,32,849.00
2019,06,04,14,33,818.40
2019,06,04,14,34,780.70
2019,06,04,14,35,833.60
2019,06,04,14,36,841.00
2019,06,04,14,37,850.10
2019,06,04,14,38,809.70
2019,06,04,14,39,809.20
2019,06,04,14,40,756.70
2019,06,04,14,41,764.10
2019,06,04,14,42,738.70
2019,06,04,14,43,734.90
2019,06,04,14,44,764.70
2019,06,04,14,45,768.00
2019,06,04,14,46,768.00
2019,06,04,14,47,733.70
2019,06,04,14,48,653.20
2019,06,04,14,49,591.20
2019,06,04,14,50,528.00
2019,06,04,14,51,530.30
2019,06,04,14,52,560.70
2019,06,04,14,53,587.40
2019,06,04,14,54,638.00
2019,06,04,14,55,678.10
2019,06,04,14,56,749.00
2019,06,04,14,57,741.00
2019,06,04,14,58,794.70
2019,06,04,14,59,781.90
2019,06,04,15,00,736.30
2019,06,04,15,01,738.10
2019,06,04,15,02,793.70
2019,06,04,15,03,801.80
2019,06,04,15,04,797.30
2019,06,04,15,05,777.40
2019,06,04,15,06,715.30
2019,06,04,15,07,704.60
2019,06,04,15,08,729.70
2019,06,04,15,09,751.00
2019,06,04,15,10,741.30
2019,06,04,15,11,731.20
2019,06,04,15,12,748.70
2019,06,04,15,13,728.20
2019,06,04,15,14,694.00
2019,06,04,15,15,660.20
2019,06,04,15,16,598.10
2019,06,04,15,17,642.00
2019,06,04,15,18,691.00
2019,06,04,15,19,685.80
2019,06,04,15,20,643.30
2019,06,04,15,21,639.00
2019,06,04,15,22,654.90
2019,06,04,15,23,658.30
2019,06,04,15,24,675.80
2019,06,04,15,25,713.30
2019,06,04,15,26,726.20
2019,06,04,15,27,742.30
2019,06,04,15,28,752.10
2019,06,04,15,29,715.30
2019,06,04,15,30,686.30
2019,06,04,15,31,672.00
2019,06,04,15,32,697.80
2019,06,04,15,33,707.80
2019,06,04,15,34,716.70
2019,06,04,15,35,716.60
2019,06,04,15,36,706.00
2019,06,04,15,37,689.40
2019,06,04,15,38,622.70
2019,06,04,15,39,559.90
2019,06,04,15,40,545.70
2019,06,04,15,41,582.00
2019,06,04,15,42,641.30
2019,06,04,15,43,688.10
2019,06,04,15,44,716.50
2019,06,04,15,45,719.80
2019,06,04,15,46,689.80
2019,06,04,15,47,700.30
2019,06,04,15,48,703.70
2019,06,04,15,49,721.70
2019,06,04,15,50,763.00
2019,06,04,15,51,725.00
2019,06,04,15,52,625.00
2019,06,04,15,53,573.00
2019,06,04,15,54,610.30
2019,06,04,15,55,697.30
2019,06,04,15,56,707.80
2019,06,04,15,57,695.30
2019,06,04,15,58,676.20
2019,06,04,15,59,671.70
2019,06,04,16,00,681.20
2019,06,04,16,01,686.00
2019,06,04,16,02,690.40
2019,06,04,16,03,701.50
2019,06,04,16,04,703.70
2019,06,04,16,05,699.20
2019,06,04,16,06,696.00
2019,06,04,16,07,684.90
2019,06,04,16,08,666.30
2019,06,04,16,09,681.20
2019,06,04,16,10,690.40
2019,06,04,16,11,694.00
2019,06,04,16,12,695.30
2019,06,04,16,13,692.20
2019,06,04,16,14,688.30
2019,06,04,16,15,685.20
2019,06,04,16,16,681.00
2019,06,04,16,17,676.90
2019,06,04,16,18,673.70
2019,06,04,16,19,674.30
2019,06,04,16,20,672.10
2019,06,04,16,21,668.00
2019,06,04,16,22,663.10
2019,06,04,16,23,660.30
2019,06,04,16,24,659.00
2019,06,04,16,25,657.30
2019,06,04,16,26,653.30
2019,06,04,16,27,651.00
2019,06,04,16,28,649.00
2019,06,04,16,29,649.30
2019,06,04,16,30,650.00
2019,06,04,16,31,649.70
2019,06,04,16,32,647.70
2019,06,04,16,33,644.00
2019,06,04,16,34,640.10
2019,06,04,16,35,635.70
2019,06,04,16,36,634.40
2019,06,04,16,37,632.30
2019,06,04,16,38,631.00
2019,06,04,16,39,628.90
2019,06,04,16,40,623.40
2019,06,04,16,41,622.70
2019,06,04,16,42,623.10
2019,06,04,16,43,620.30
2019,06,04,16,44,618.40
2019,06,04,16,45,614.70
2019,06,04,16,46,610.90
2019,06,04,16,47,611.30
2019,06,04,16,48,607.00
2019,06,04,16,49,605.00
2019,06,04,16,50,603.10
2019,06,04,16,51,599.70
2019,06,04,16,52,600.00
2019,06,04,16,53,596.70
2019,06,04,16,54,593.00
2019,06,04,16,55,591.00
2019,06,04,16,56,590.40
2019,06,04,16,57,587.70
2019,06,04,16,58,584.70
2019,06,04,16,59,582.70
2019,06,04,17,00,579.40
2019,06,04,17,01,578.60
2019,06,04,17,02,579.30
2019,06,04,17,03,577.70
2019,06,04,17,04,575.00
2019,06,04,17,05,570.70
2019,06,04,17,06,568.60
2019,06,04,17,07,565.00